Regional Weather Roundup
Issued by NWS Cleveland, OH

Home | Current Version | Previous Version | Text Only | Print | Product List | Glossary Off
Versions: 1 2 3 4 5 6 7 8 9 10 11 12 13 14 15 16 17 18 19 20 21 22 23 24 25 26 27 28 29 30 31 32 33 34 35 36 37 38 39 40 41 42 43 44 45 46 47 48 49 50

000
ASUS41 KCLE 210102
RWRCLE
OHIO REGIONAL WEATHER ROUNDUP
NATIONAL WEATHER SERVICE CLEVELAND, OH
800 PM EST SAT JAN 20 2018

NOTE: "FAIR" INDICATES FEW OR NO CLOUDS BELOW 12,000 FEET WITH NO
SIGNIFICANT WEATHER AND/OR OBSTRUCTIONS TO VISIBILITY.

OHZ001>008-015>018-024>027-034-035-043-044-210200-
   NORTHWEST OHIO

CITY           SKY/WX    TMP DP  RH WIND       PRES   REMARKS
DEFIANCE       CLOUDY    37  32  82 SW3       30.06R
FINDLAY        CLOUDY    39  32  76 SW9       30.05S
TOLEDO EXPRESS MOCLDY    38  34  85 SW6       30.04R
TOLEDO EXEC    FAIR      35  30  82 SW7       30.06R WCI  29
LIMA           CLOUDY    39  32  76 S7        30.06R
$$

OHZ009>014-019>023-028>033-038-089-210200-
   NORTHEAST OHIO

CITY           SKY/WX    TMP DP  RH WIND       PRES   REMARKS
CLE-HOPKINS    FAIR      38  29  70 S7        30.08S
CLE-LAKEFRONT  FAIR      39  28  64 S9        30.05S
CUY CO. ARPT   CLEAR     39  28  65 SW8       30.06R
LORAIN-ELYRIA  FAIR      36  25  64 SW7       30.06R
ASHTABULA      FAIR      37  27  67 S8        30.05R
AKRON-CANTON   FAIR      36  26  67 SW6       30.06S
WOOSTER        FAIR      36  28  73 SW7       30.06S
MANSFIELD      MOCLDY    40  31  70 SW14      30.06R
YOUNGSTOWN     FAIR      38  26  62 SW9       30.06R
$$

OHZ042-051>053-060>062-070>072-077>081-210200-
  SOUTHWEST OHIO

CITY           SKY/WX    TMP DP  RH WIND       PRES   REMARKS
CINC-COVINGTON CLOUDY    46  40  79 SW7       30.11R
CINC-LUNKEN    CLOUDY    45  39  79 S7        30.13R
HAMILTON       CLOUDY    47  35  63 SW6       30.12R
DAYTON         CLOUDY    42  34  73 S3        30.09R
WRIGHT-PAT AFB CLOUDY    43  27  54 S5        30.09R
DAYTON GENERAL CLOUDY    43  32  65 S9        30.08S
WILMINGTON     CLOUDY    40  32  73 S9        30.09S
$$

OHZ036-037-039>041-045>050-054>059-063>069-073>076-082>088-210200-
  CENTRAL AND SOUTHEAST OHIO

CITY           SKY/WX    TMP DP  RH WIND       PRES   REMARKS
COLUMBUS       CLOUDY    43  31  62 SW8       30.10S
OSU AIRPORT    CLOUDY    41  33  73 S6        30.09S
BOLTON FIELD   NOT AVBL
RICKENBACK AFB NOT AVBL
NEWARK         CLOUDY    37  29  72 CALM      30.10R
MARION         CLOUDY    38  30  73 S7        30.08R
LANCASTER      CLOUDY    43  31  62 S6        30.11S
ZANESVILLE     CLOUDY    44  29  55 SW3       30.11R
NEW PHILLY     NOT AVBL
$$




USA.gov is the U.S. government's official web portal to all federal, state and local government web resources and services.